User: anonymous   Login
Location: Unspecified
(0.0000°N, 0.0000°E)
Time: 06:51:29
(UTC+00:00)
Language:

FORMOSAT 3E - Orbit

View from above orbital plane
View from above orbital plane
View from above satellite
View from above satellite

Ground track
Ground track

The orbit data is extracted from the following two-line orbital elements,

1 29051U 06011E   17087.92784481 +.00000130 +00000-0 +66602-4 0  9999
2 29051 072.0071 332.4078 0068127 160.5881 199.7874 14.28574476574151
Epoch (UTC): 28 March 2017 22:16:05
Eccentricity: 0.0068127
inclination: 72.0071°
perigee height: 747 km
apogee height: 845 km
right ascension of ascending node: 332.4078°
argument of perigee: 160.5881°
revolutions per day: 14.28574476
mean anomaly at epoch: 199.7874°
orbit number at epoch: 57415

The dashed part of the orbit path shows where the satellite is in the earth's shadow,  

DLR